• în Republica Moldova
  • Lista ţărilor
  • Pe 7 zile
  • Temperatura apei
  • Hartă satelitară
  • Meteo pe hartă
  • Widget-uri
  • user-avatar
    Intrare

    Meteo pe oră la Kalgoorlie

    Astăzi, 16 August, Miercuri

    Timp Temperatura Precipitaţii Vânt Presiune Umiditate
    00:00 +9°C° 0 mm 6 m/s 729 mmHg 68%
    01:00 +8°C° 0 mm 5 m/s 729 mmHg 72%
    02:00 +8°C° 0 mm 5 m/s 729 mmHg 76%
    03:00 +8°C° 0 mm 5 m/s 729 mmHg 79%
    04:00 +7°C° 0 mm 5 m/s 729 mmHg 81%
    05:00 +7°C° 0 mm 5 m/s 729 mmHg 84%
    06:00 +8°C° 0 mm 5 m/s 729 mmHg 82%
    07:00 +8°C° 0 mm 6 m/s 729 mmHg 79%
    08:00 +9°C° 0 mm 7 m/s 730 mmHg 75%
    09:00 +10°C° 0 mm 7 m/s 730 mmHg 70%
    10:00 +11°C° 0 mm 7 m/s 729 mmHg 66%
    11:00 +11°C° 0 mm 8 m/s 729 mmHg 61%
    12:00 +12°C° 0 mm 8 m/s 729 mmHg 58%
    13:00 +13°C° 0 mm 8 m/s 729 mmHg 55%
    14:00 +13°C° 0 mm 9 m/s 729 mmHg 51%
    15:00 +13°C° 0 mm 9 m/s 729 mmHg 50%
    16:00 +13°C° 0 mm 8 m/s 729 mmHg 49%
    17:00 +13°C° 0 mm 8 m/s 729 mmHg 48%
    18:00 +12°C° 0 mm 7 m/s 730 mmHg 50%
    19:00 +11°C° 0 mm 6 m/s 730 mmHg 52%
    20:00 +10°C° 0 mm 5 m/s 730 mmHg 54%
    21:00 +9°C° 0 mm 5 m/s 731 mmHg 59%
    22:00 +9°C° 0 mm 5 m/s 731 mmHg 63%
    23:00 +8°C° 0 mm 4 m/s 731 mmHg 68%

    Mâine, 17 August, Joi

    Timp Temperatura Precipitaţii Vânt Presiune Umiditate
    00:00 +7°C° 0 mm 4 m/s 732 mmHg 71%
    01:00 +6°C° 0 mm 4 m/s 732 mmHg 74%
    02:00 +6°C° 0 mm 4 m/s 732 mmHg 77%
    03:00 +5°C° 0 mm 3 m/s 732 mmHg 79%
    04:00 +5°C° 0 mm 3 m/s 732 mmHg 80%
    05:00 +4°C° 0 mm 3 m/s 732 mmHg 81%
    06:00 +5°C° 0 mm 3 m/s 732 mmHg 76%
    07:00 +7°C° 0 mm 3 m/s 733 mmHg 70%
    08:00 +7°C° 0 mm 3 m/s 733 mmHg 65%
    09:00 +9°C° 0 mm 3 m/s 733 mmHg 55%
    10:00 +10°C° 0 mm 3 m/s 733 mmHg 45%
    11:00 +12°C° 0 mm 3 m/s 733 mmHg 35%
    12:00 +13°C° 0 mm 3 m/s 733 mmHg 32%
    13:00 +15°C° 0 mm 2 m/s 732 mmHg 30%
    14:00 +16°C° 0 mm 2 m/s 732 mmHg 27%
    15:00 +16°C° 0 mm 2 m/s 732 mmHg 28%
    16:00 +16°C° 0 mm 2 m/s 732 mmHg 28%
    17:00 +15°C° 0 mm 1 m/s 732 mmHg 29%
    18:00 +14°C° 0 mm 1 m/s 732 mmHg 31%
    19:00 +13°C° 0 mm 1 m/s 732 mmHg 34%
    20:00 +12°C° 0 mm 1 m/s 733 mmHg 37%
    21:00 +12°C° 0 mm 2 m/s 733 mmHg 37%
    22:00 +12°C° 0 mm 2 m/s 733 mmHg 37%
    23:00 +10°C° 0 mm 3 m/s 733 mmHg 37%

    Poimâine, 18 August, Vineri

    Timp Temperatura Precipitaţii Vânt Presiune Umiditate
    00:00 +10°C° 0 mm 3 m/s 733 mmHg 37%
    01:00 +10°C° 0 mm 3 m/s 733 mmHg 38%
    02:00 +10°C° 0 mm 3 m/s 733 mmHg 39%
    03:00 +9°C° 0 mm 3 m/s 733 mmHg 39%
    04:00 +8°C° 0 mm 4 m/s 732 mmHg 39%
    05:00 +8°C° 0 mm 4 m/s 732 mmHg 39%
    06:00 +9°C° 0 mm 5 m/s 733 mmHg 37%
    07:00 +9°C° 0 mm 6 m/s 733 mmHg 35%
    08:00 +10°C° 0 mm 6 m/s 733 mmHg 33%
    09:00 +12°C° 0 mm 7 m/s 733 mmHg 31%
    10:00 +16°C° 0 mm 7 m/s 733 mmHg 28%
    11:00 +18°C° 0 mm 8 m/s 733 mmHg 25%
    12:00 +20°C° 0 mm 7 m/s 732 mmHg 24%
    13:00 +21°C° 0 mm 7 m/s 731 mmHg 23%
    14:00 +22°C° 0 mm 7 m/s 731 mmHg 22%
    15:00 +21°C° 0 mm 6 m/s 731 mmHg 23%
    16:00 +21°C° 0 mm 5 m/s 730 mmHg 24%
    17:00 +20°C° 0 mm 5 m/s 730 mmHg 25%
    18:00 +20°C° 0 mm 6 m/s 730 mmHg 25%
    19:00 +19°C° 0 mm 6 m/s 730 mmHg 25%
    20:00 +18°C° 0 mm 7 m/s 730 mmHg 25%
    21:00 +18°C° 0 mm 8 m/s 730 mmHg 24%
    22:00 +18°C° 0 mm 9 m/s 730 mmHg 23%
    23:00 +17°C° 0 mm 9 m/s 729 mmHg 22%

    19 August, Sâmbătă

    Timp Temperatura Precipitaţii Vânt Presiune Umiditate
    00:00 +17°C° 0 mm 9 m/s 729 mmHg 23%
    01:00 +17°C° 0 mm 9 m/s 728 mmHg 23%
    02:00 +17°C° 0 mm 8 m/s 727 mmHg 24%
    03:00 +17°C° 0 mm 8 m/s 727 mmHg 27%
    04:00 +17°C° 0 mm 7 m/s 727 mmHg 29%
    05:00 +17°C° 0 mm 7 m/s 726 mmHg 32%
    06:00 +17°C° 0 mm 6 m/s 726 mmHg 33%
    07:00 +17°C° 0 mm 6 m/s 727 mmHg 34%
    08:00 +17°C° 0 mm 6 m/s 727 mmHg 36%
    09:00 +20°C° 0 mm 6 m/s 727 mmHg 34%
    10:00 +22°C° 0 mm 7 m/s 727 mmHg 33%
    11:00 +24°C° 0 mm 7 m/s 727 mmHg 32%
    12:00 +24°C° 0 mm 7 m/s 726 mmHg 31%
    13:00 +24°C° 0 mm 7 m/s 726 mmHg 31%
    14:00 +26°C° 0 mm 8 m/s 725 mmHg 31%
    15:00 +23°C° 0 mm 8 m/s 725 mmHg 32%
    16:00 +22°C° 0 mm 9 m/s 726 mmHg 33%
    17:00 +21°C° 0 mm 9 m/s 726 mmHg 35%
    18:00 +18°C° 0 mm 9 m/s 727 mmHg 39%
    19:00 +16°C° 0 mm 9 m/s 727 mmHg 44%
    20:00 +15°C° 0 mm 9 m/s 728 mmHg 49%
    21:00 +13°C° 0 mm 8 m/s 728 mmHg 55%
    22:00 +12°C° 0 mm 8 m/s 728 mmHg 61%
    23:00 +11°C° 0 mm 8 m/s 728 mmHg 68%

    20 August, Duminică

    Timp Temperatura Precipitaţii Vânt Presiune Umiditate
    00:00 +11°C° 0 mm 8 m/s 729 mmHg 70%
    01:00 +11°C° 0 mm 9 m/s 729 mmHg 72%
    02:00 +10°C° 0 mm 9 m/s 729 mmHg 74%
    03:00 +10°C° 0 mm 9 m/s 729 mmHg 74%
    04:00 +9°C° 0 mm 10 m/s 730 mmHg 75%
    05:00 +9°C° 0 mm 10 m/s 730 mmHg 76%
    06:00 +11°C° 0 mm 10 m/s 731 mmHg 74%
    07:00 +11°C° 0 mm 10 m/s 732 mmHg 73%
    08:00 +11°C° 0 mm 10 m/s 733 mmHg 72%
    09:00 +12°C° 0 mm 10 m/s 733 mmHg 67%
    10:00 +13°C° 0 mm 9 m/s 734 mmHg 62%
    11:00 +13°C° 0 mm 9 m/s 734 mmHg 57%
    12:00 +15°C° 0 mm 9 m/s 734 mmHg 55%
    13:00 +15°C° 0 mm 8 m/s 734 mmHg 53%
    14:00 +15°C° 0 mm 8 m/s 733 mmHg 51%
    15:00 +15°C° 0 mm 7 m/s 734 mmHg 50%
    16:00 +14°C° 0 mm 6 m/s 734 mmHg 50%
    17:00 +14°C° 0 mm 6 m/s 734 mmHg 50%
    18:00 +13°C° 0 mm 5 m/s 735 mmHg 53%
    19:00 +12°C° 0 mm 4 m/s 735 mmHg 55%
    20:00 +11°C° 0 mm 3 m/s 736 mmHg 58%
    21:00 +10°C° 0 mm 4 m/s 736 mmHg 62%
    22:00 +10°C° 0 mm 4 m/s 736 mmHg 65%
    23:00 +8°C° 0 mm 4 m/s 736 mmHg 69%

    21 August, Luni

    Timp Temperatura Precipitaţii Vânt Presiune Umiditate
    00:00 +8°C° 0 mm 3 m/s 736 mmHg 73%
    01:00 +8°C° 0 mm 3 m/s 736 mmHg 78%
    02:00 +8°C° 0 mm 2 m/s 736 mmHg 82%
    03:00 +7°C° 0 mm 2 m/s 736 mmHg 84%
    04:00 +7°C° 0 mm 2 m/s 736 mmHg 86%
    05:00 +7°C° 0 mm 2 m/s 736 mmHg 88%
    06:00 +7°C° 0 mm 2 m/s 736 mmHg 84%
    07:00 +8°C° 0 mm 2 m/s 736 mmHg 81%
    08:00 +9°C° 0 mm 2 m/s 737 mmHg 77%
    09:00 +12°C° 0 mm 2 m/s 736 mmHg 69%
    10:00 +12°C° 0 mm 3 m/s 736 mmHg 61%
    11:00 +14°C° 0 mm 3 m/s 736 mmHg 53%
    12:00 +16°C° 0 mm 3 m/s 735 mmHg 49%
    13:00 +17°C° 0 mm 2 m/s 735 mmHg 45%
    14:00 +18°C° 0 mm 2 m/s 734 mmHg 41%
    15:00 +18°C° 0 mm 2 m/s 734 mmHg 41%
    16:00 +18°C° 0 mm 3 m/s 734 mmHg 41%
    17:00 +18°C° 0 mm 3 m/s 734 mmHg 41%
    18:00 +17°C° 0 mm 3 m/s 734 mmHg 44%
    19:00 +16°C° 0 mm 3 m/s 735 mmHg 47%
    20:00 +14°C° 0 mm 3 m/s 735 mmHg 51%
    21:00 +14°C° 0 mm 3 m/s 735 mmHg 53%
    22:00 +13°C° 0 mm 3 m/s 735 mmHg 55%
    23:00 +13°C° 0 mm 3 m/s 735 mmHg 58%
    Arată mai mult